When you browse on this site, cookies collect data to enhance your experience and personalize the content and advertising you see.
Visit our Privacy Policy to learn more. By continuing to use the site, you agree to this use of cookies and data.
  • în România
  • Lista ţărilor
  • Pe 7 zile
  • Temperatura apei
  • Hartă satelitară
  • Meteo pe hartă
  • Widget-uri
  • user-avatar
    Intrare

    Meteo pe oră la Cajamarca

    Astăzi, 22 Iulie, Luni

    Timp Temperatura Precipitaţii Vânt Presiune Umiditate
    00:00 +11°C° 0 mm 1 m/s 543 mmHg 86%
    01:00 +9°C° 0 mm 2 m/s 543 mmHg 86%
    02:00 +9°C° 0 mm 2 m/s 543 mmHg 86%
    03:00 +9°C° 0 mm 2 m/s 542 mmHg 86%
    04:00 +8°C° 0 mm 2 m/s 542 mmHg 86%
    05:00 +9°C° 0 mm 2 m/s 542 mmHg 86%
    06:00 +9°C° 0 mm 2 m/s 542 mmHg 85%
    07:00 +9°C° 0 mm 2 m/s 543 mmHg 85%
    08:00 +12°C° 0 mm 2 m/s 544 mmHg 73%
    09:00 +15°C° 0 mm 2 m/s 546 mmHg 62%
    10:00 +18°C° 0 mm 2 m/s 548 mmHg 50%
    11:00 +19°C° 0 mm 2 m/s 548 mmHg 47%
    12:00 +20°C° 0 mm 3 m/s 548 mmHg 43%
    13:00 +21°C° 0 mm 3 m/s 548 mmHg 39%
    14:00 +20°C° 0.1 mm 3 m/s 547 mmHg 43%
    15:00 +19°C° 0.1 mm 3 m/s 546 mmHg 48%
    16:00 +19°C° 0.1 mm 3 m/s 545 mmHg 52%
    17:00 +16°C° 0.3 mm 2 m/s 544 mmHg 63%
    18:00 +14°C° 0.3 mm 1 m/s 544 mmHg 74%
    19:00 +12°C° 0.3 mm 1 m/s 543 mmHg 86%
    20:00 +12°C° 0.1 mm 1 m/s 543 mmHg 86%
    21:00 +12°C° 0.1 mm 1 m/s 543 mmHg 87%
    22:00 +12°C° 0.1 mm 1 m/s 544 mmHg 88%
    23:00 +11°C° 0 mm 1 m/s 544 mmHg 87%

    Mâine, 23 Iulie, Marţi

    Timp Temperatura Precipitaţii Vânt Presiune Umiditate
    00:00 +11°C° 0 mm 1 m/s 544 mmHg 87%
    01:00 +11°C° 0 mm 1 m/s 544 mmHg 86%
    02:00 +10°C° 0 mm 1 m/s 543 mmHg 86%
    03:00 +9°C° 0 mm 2 m/s 543 mmHg 86%
    04:00 +8°C° 0 mm 2 m/s 542 mmHg 86%
    05:00 +9°C° 0 mm 2 m/s 542 mmHg 84%
    06:00 +9°C° 0 mm 2 m/s 543 mmHg 83%
    07:00 +9°C° 0 mm 2 m/s 543 mmHg 81%
    08:00 +13°C° 0 mm 2 m/s 545 mmHg 69%
    09:00 +15°C° 0 mm 2 m/s 546 mmHg 57%
    10:00 +18°C° 0 mm 2 m/s 548 mmHg 45%
    11:00 +19°C° 0 mm 2 m/s 548 mmHg 44%
    12:00 +19°C° 0 mm 2 m/s 548 mmHg 42%
    13:00 +20°C° 0 mm 3 m/s 548 mmHg 41%
    14:00 +19°C° 0.1 mm 3 m/s 547 mmHg 47%
    15:00 +18°C° 0.1 mm 2 m/s 546 mmHg 53%
    16:00 +17°C° 0.1 mm 2 m/s 545 mmHg 60%
    17:00 +15°C° 0.2 mm 2 m/s 544 mmHg 69%
    18:00 +14°C° 0.2 mm 1 m/s 544 mmHg 78%
    19:00 +12°C° 0.2 mm 1 m/s 543 mmHg 87%
    20:00 +12°C° 0.1 mm 1 m/s 543 mmHg 87%
    21:00 +11°C° 0.1 mm 1 m/s 544 mmHg 88%
    22:00 +11°C° 0.1 mm 1 m/s 544 mmHg 89%
    23:00 +11°C° 0 mm 1 m/s 544 mmHg 89%

    Poimâine, 24 Iulie, Miercuri

    Timp Temperatura Precipitaţii Vânt Presiune Umiditate
    00:00 +11°C° 0 mm 1 m/s 544 mmHg 88%
    01:00 +11°C° 0 mm 1 m/s 544 mmHg 88%
    02:00 +11°C° 0 mm 1 m/s 543 mmHg 88%
    03:00 +11°C° 0 mm 1 m/s 543 mmHg 87%
    04:00 +11°C° 0 mm 1 m/s 543 mmHg 86%
    05:00 +11°C° 0 mm 1 m/s 543 mmHg 87%
    06:00 +10°C° 0 mm 2 m/s 543 mmHg 87%
    07:00 +10°C° 0 mm 2 m/s 543 mmHg 88%
    08:00 +13°C° 0 mm 2 m/s 545 mmHg 78%
    09:00 +15°C° 0 mm 2 m/s 547 mmHg 67%
    10:00 +17°C° 0 mm 2 m/s 548 mmHg 57%
    11:00 +18°C° 0.3 mm 2 m/s 548 mmHg 56%
    12:00 +18°C° 0.3 mm 2 m/s 547 mmHg 55%
    13:00 +19°C° 0.3 mm 2 m/s 547 mmHg 54%
    14:00 +18°C° 0.8 mm 2 m/s 546 mmHg 59%
    15:00 +17°C° 0.8 mm 2 m/s 545 mmHg 63%
    16:00 +16°C° 0.8 mm 2 m/s 544 mmHg 68%
    17:00 +15°C° 0.4 mm 1 m/s 544 mmHg 74%
    18:00 +14°C° 0.4 mm 1 m/s 543 mmHg 81%
    19:00 +12°C° 0.4 mm 1 m/s 543 mmHg 87%
    20:00 +12°C° 0.2 mm 1 m/s 543 mmHg 88%
    21:00 +12°C° 0.2 mm 1 m/s 543 mmHg 89%
    22:00 +11°C° 0.2 mm 1 m/s 544 mmHg 90%
    23:00 +11°C° 0.4 mm 1 m/s 544 mmHg 90%

    25 Iulie, Joi

    Timp Temperatura Precipitaţii Vânt Presiune Umiditate
    00:00 +11°C° 0.4 mm 1 m/s 543 mmHg 90%
    01:00 +11°C° 0.4 mm 1 m/s 543 mmHg 89%
    02:00 +10°C° 0.6 mm 0 m/s 543 mmHg 90%
    03:00 +10°C° 0.6 mm 0 m/s 543 mmHg 91%
    04:00 +10°C° 0.6 mm 0 m/s 543 mmHg 92%
    05:00 +11°C° 0.2 mm 1 m/s 543 mmHg 91%
    06:00 +10°C° 0.2 mm 1 m/s 543 mmHg 90%
    07:00 +10°C° 0.2 mm 1 m/s 543 mmHg 89%
    08:00 +13°C° 0 mm 1 m/s 545 mmHg 78%
    09:00 +15°C° 0 mm 2 m/s 546 mmHg 67%
    10:00 +17°C° 0 mm 2 m/s 547 mmHg 57%
    11:00 +18°C° 0.1 mm 2 m/s 547 mmHg 53%
    12:00 +18°C° 0.1 mm 2 m/s 547 mmHg 49%
    13:00 +19°C° 0.1 mm 3 m/s 547 mmHg 45%
    14:00 +18°C° 0.4 mm 3 m/s 546 mmHg 51%
    15:00 +17°C° 0.4 mm 3 m/s 545 mmHg 57%
    16:00 +17°C° 0.4 mm 2 m/s 544 mmHg 63%
    17:00 +15°C° 0.3 mm 2 m/s 544 mmHg 72%
    18:00 +14°C° 0.3 mm 1 m/s 544 mmHg 80%
    19:00 +12°C° 0.3 mm 1 m/s 543 mmHg 89%
    20:00 +12°C° 0.2 mm 1 m/s 543 mmHg 89%
    21:00 +12°C° 0.2 mm 1 m/s 544 mmHg 90%
    22:00 +11°C° 0.2 mm 1 m/s 544 mmHg 91%
    23:00 +11°C° 0.1 mm 1 m/s 544 mmHg 89%

    26 Iulie, Vineri

    Timp Temperatura Precipitaţii Vânt Presiune Umiditate
    00:00 +11°C° 0.1 mm 1 m/s 544 mmHg 88%
    01:00 +11°C° 0.1 mm 1 m/s 544 mmHg 86%
    02:00 +11°C° 0 mm 1 m/s 543 mmHg 86%
    03:00 +9°C° 0 mm 2 m/s 542 mmHg 86%
    04:00 +9°C° 0 mm 2 m/s 542 mmHg 87%
    05:00 +9°C° 0 mm 2 m/s 542 mmHg 86%
    06:00 +9°C° 0 mm 2 m/s 542 mmHg 85%
    07:00 +9°C° 0 mm 2 m/s 543 mmHg 85%
    08:00 +12°C° 0 mm 2 m/s 544 mmHg 75%
    09:00 +14°C° 0 mm 2 m/s 546 mmHg 65%
    10:00 +17°C° 0 mm 2 m/s 547 mmHg 55%
    11:00 +17°C° 0.1 mm 2 m/s 547 mmHg 53%
    12:00 +18°C° 0.1 mm 3 m/s 547 mmHg 52%
    13:00 +19°C° 0.1 mm 3 m/s 547 mmHg 51%
    14:00 +18°C° 0.1 mm 2 m/s 546 mmHg 53%
    15:00 +18°C° 0.1 mm 2 m/s 546 mmHg 56%
    16:00 +17°C° 0.1 mm 2 m/s 545 mmHg 58%
    17:00 +16°C° 0.2 mm 1 m/s 545 mmHg 66%
    18:00 +14°C° 0.2 mm 1 m/s 544 mmHg 75%
    19:00 +12°C° 0.2 mm 1 m/s 544 mmHg 83%
    20:00 +12°C° 0 mm 1 m/s 544 mmHg 84%
    21:00 +10°C° 0 mm 2 m/s 544 mmHg 84%
    22:00 +10°C° 0 mm 2 m/s 544 mmHg 85%
    23:00 +10°C° 0 mm 2 m/s 543 mmHg 85%

    27 Iulie, Sâmbătă

    Timp Temperatura Precipitaţii Vânt Presiune Umiditate
    00:00 +9°C° 0 mm 2 m/s 543 mmHg 86%
    01:00 +9°C° 0 mm 2 m/s 543 mmHg 86%
    02:00 +9°C° 0 mm 2 m/s 543 mmHg 86%
    03:00 +9°C° 0 mm 2 m/s 542 mmHg 86%
    04:00 +9°C° 0 mm 2 m/s 542 mmHg 86%
    05:00 +9°C° 0 mm 2 m/s 542 mmHg 85%
    06:00 +9°C° 0 mm 3 m/s 543 mmHg 85%
    07:00 +9°C° 0 mm 3 m/s 543 mmHg 84%
    08:00 +11°C° 0 mm 3 m/s 545 mmHg 74%
    09:00 +14°C° 0 mm 3 m/s 546 mmHg 65%
    10:00 +17°C° 0 mm 2 m/s 548 mmHg 55%
    11:00 +18°C° 0.1 mm 3 m/s 548 mmHg 53%
    12:00 +19°C° 0.1 mm 3 m/s 547 mmHg 51%
    13:00 +19°C° 0.1 mm 3 m/s 547 mmHg 49%
    14:00 +19°C° 0.2 mm 2 m/s 547 mmHg 52%
    15:00 +18°C° 0.2 mm 2 m/s 546 mmHg 54%
    16:00 +18°C° 0.2 mm 2 m/s 545 mmHg 57%
    17:00 +16°C° 0.3 mm 1 m/s 545 mmHg 65%
    18:00 +14°C° 0.3 mm 1 m/s 544 mmHg 73%
    19:00 +13°C° 0.3 mm 1 m/s 544 mmHg 82%
    20:00 +12°C° 0 mm 1 m/s 544 mmHg 82%
    21:00 +12°C° 0 mm 2 m/s 544 mmHg 83%
    22:00 +12°C° 0 mm 2 m/s 544 mmHg 84%
    23:00 +10°C° 0 mm 2 m/s 544 mmHg 85%
    Arată mai mult